EW1931 Weather Reports


time (UTC)temp
F
wind
direction
speed
knots
gust
knots
rain 1hr
in
rain 24hr
in
rain mn
in
humidity
%
barometer
mb
20260508051531 51 261 6.1 8.7 0.00 0.00 0.00 61 924.3
20260508050031 53 260 7.0 7.8 0.00 0.00 0.00 60 924.3
20260508044512 55 275 6.1 7.0 0.00 0.00 0.00 56 924.5
20260508043012 56 272 6.1 8.7 0.00 0.00 0.00 53 924.5
20260508041614 58 270 7.0 10.4 0.00 0.00 0.00 50 924.5
20260508040109 59 286 10.4 13.9 0.00 0.00 0.00 49 924.5
20260508034535 58 282 11.3 15.6 0.00 0.00 0.00 50 924.4
20260508033033 56 282 11.3 13.9 0.00 0.00 0.00 52 924.3
20260508031515 53 295 5.2 7.0 0.00 0.00 0.00 54 924.1
20260508030023 55 291 5.2 7.0 0.00 0.00 0.00 52 923.9
20260508024606 56 276 5.2 7.0 0.00 0.00 0.00 52 923.8
20260508023057 58 269 5.2 7.0 0.00 0.00 0.00 50 923.5
20260508021541 61 265 5.2 7.0 0.00 0.00 0.00 47 923.5
20260508020045 63 258 6.1 8.7 0.00 0.00 0.00 44 923.4
20260508014521 64 245 7.0 13.0 0.00 0.00 0.00 43 923.3
20260508013020 65 261 11.3 15.6 0.00 0.00 0.00 42 923.1
20260508011508 66 211 7.8 13.0 0.00 0.00 0.00 41 923.0
20260508010001 66 246 7.8 11.3 0.00 0.00 0.00 36 923.1
20260508004544 65 273 13.0 27.8 0.00 0.00 0.00 36 923.2
20260508003042 67 319 13.0 18.2 0.00 0.00 0.00 30 923.1
20260508001524 68 312 7.8 11.3 0.00 0.00 0.00 31 922.8
20260508000025 68 305 7.0 12.2 0.00 0.00 0.00 31 922.7
20260507234505 68 283 8.7 13.9 0.00 0.00 0.00 31 922.7
20260507233018 68 280 11.3 23.5 0.00 0.00 0.00 30 922.6
20260507231547 68 288 10.4 16.5 0.00 0.00 0.00 31 922.6
20260507230046 69 340 11.3 15.6 0.00 0.00 0.00 30 922.7
20260507224531 69 349 12.2 18.2 0.00 0.00 0.00 30 922.7
20260507223029 68 319 8.7 13.0 0.00 0.00 0.00 31 922.7
20260507221509 67 321 9.6 23.5 0.00 0.00 0.00 32 922.9
20260507220009 69 333 9.6 19.1 0.00 0.00 0.00 30 922.9
20260507214558 69 324 14.8 20.0 0.00 0.00 0.00 29 922.9
20260507213100 68 303 7.0 13.0 0.00 0.00 0.00 31 923.1
20260507211529 67 331 10.4 15.6 0.00 0.00 0.00 37 923.2
20260507210028 65 263 11.3 15.6 0.00 0.00 0.00 44 923.5
20260507204515 62 298 5.2 10.4 0.00 0.00 0.00 51 923.5
20260507203009 62 338 15.6 51.3 0.00 0.00 0.00 47 923.8
20260507201551 66 344 6.1 9.6 0.00 0.00 0.00 35 923.2
20260507200051 65 325 5.2 8.7 0.00 0.00 0.00 36 923.2
20260507194559 66 316 8.7 17.4 0.00 0.00 0.00 32 923.2
20260507193037 68 355 10.4 15.6 0.00 0.00 0.00 32 923.1
20260507191522 66 315 8.7 13.0 0.00 0.00 0.00 33 923.2
20260507190014 66 320 7.8 15.6 0.00 0.00 0.00 32 923.2
20260507184556 67 304 7.0 16.5 0.00 0.00 0.00 31 923.2
20260507183055 68 338 13.0 20.0 0.00 0.00 0.00 32 923.3
20260507181534 67 323 13.0 19.1 0.00 0.00 0.00 35 923.5
20260507180036 65 330 13.0 19.1 0.00 0.00 0.00 37 923.7
20260507174517 67 340 12.2 18.2 0.00 0.00 0.00 37 923.6
20260507173025 65 325 12.2 21.7 0.00 0.00 0.00 39 923.8
20260507171608 67 336 11.3 17.4 0.00 0.00 0.00 37 923.9
20260507171502 67 344 13.0 19.1 0.00 0.00 0.00 37 923.9
20260507170110 66 331 13.9 23.5 0.00 0.00 0.00 38 923.8
20260507164541 63 336 7.0 11.3 0.00 0.00 0.00 41 924.0
20260507163031 62 200 5.2 9.6 0.00 0.00 0.00 42 924.0
20260507161510 60 248 3.5 7.0 0.00 0.00 0.00 45 924.2
20260507160006 57 231 5.2 7.8 0.00 0.00 0.00 47 924.3
20260507154551 55 221 4.3 8.7 0.00 0.00 0.00 50 924.3
20260507153042 53 198 5.2 7.0 0.00 0.00 0.00 51 924.4
20260507151520 52 183 6.1 8.7 0.00 0.00 0.00 48 924.6
20260507150018 51 180 5.2 7.8 0.00 0.00 0.00 49 924.6
20260507144602 50 5 1.7 5.2 0.00 0.00 0.00 50 924.8
20260507143114 49 15 2.6 7.0 0.00 0.00 0.00 50 924.7
20260507141550 49 21 7.8 10.4 0.00 0.00 0.00 50 924.8
20260507140040 49 335 6.1 9.6 0.00 0.00 0.00 52 924.7
20260507134520 51 355 7.8 10.4 0.00 0.00 0.00 52 924.7
20260507133016 48 311 7.0 9.6 0.00 0.00 0.00 51 924.3
20260507131555 47 309 5.2 7.8 0.00 0.00 0.00 50 924.4
20260507130052 46 19 2.6 8.7 0.00 0.00 0.00 52 924.3
20260507124531 44 323 7.8 10.4 0.00 0.00 0.00 54 924.4
20260507123037 44 296 7.0 9.6 0.00 0.00 0.00 54 924.2
20260507121511 44 300 7.0 10.4 0.00 0.00 0.00 55 924.1
20260507120026 42 309 7.0 9.6 0.00 0.00 0.00 58 923.9
20260507114558 42 310 7.0 8.7 0.00 0.00 0.00 57 923.9
20260507113053 42 306 6.1 9.6 0.00 0.00 0.00 55 923.8
20260507111531 43 286 5.2 9.6 0.00 0.00 0.00 55 923.7
20260507110036 44 288 6.1 7.8 0.00 0.00 0.00 55 923.8
20260507104515 44 267 6.1 8.7 0.00 0.00 0.00 56 923.7
20260507103013 44 223 7.0 8.7 0.00 0.00 0.00 56 923.8
20260507101559 43 244 6.1 8.7 0.00 0.00 0.00 58 923.7
20260507100050 44 221 6.1 8.7 0.00 0.00 0.00 57 923.4
20260507094532 44 355 3.5 5.2 0.00 0.00 0.00 56 923.5
20260507093030 44 19 6.1 8.7 0.00 0.00 0.00 57 923.6
20260507091510 44 13 7.0 8.7 0.00 0.00 0.00 57 923.5
20260507090009 44 9 7.0 9.6 0.00 0.00 0.00 56 923.3
20260507084555 44 26 6.1 8.7 0.00 0.00 0.00 57 923.1
20260507083051 44 10 5.2 8.7 0.00 0.00 0.00 58 923.1
20260507081542 43 37 5.2 7.8 0.00 0.00 0.00 59 923.2
20260507080036 43 36 6.1 8.7 0.00 0.00 0.00 59 923.1
20260507074538 44 23 5.2 6.1 0.00 0.00 0.00 58 923.0
20260507073030 47 35 4.3 6.1 0.00 0.00 0.00 55 923.1
20260507071535 47 80 3.5 4.3 0.00 0.00 0.00 55 923.1
20260507070033 48 86 4.3 7.0 0.00 0.00 0.00 55 923.1
20260507064537 49 47 6.1 11.3 0.00 0.00 0.00 55 923.1
20260507063027 52 51 9.6 13.9 0.00 0.00 0.00 49 923.0
20260507061533 54 66 10.4 15.6 0.00 0.00 0.00 47 923.3
20260507060009 55 73 5.2 12.2 0.00 0.00 0.00 46 923.2
20260507054532 56 74 12.2 14.8 0.00 0.00 0.00 35 922.7
20260507053039 55 79 10.4 12.2 0.00 0.00 0.00 36 922.7